Weather History for Creston, IA

Change the Weather History Date:

Tuesday, November 1, 2011

  Actual Average Record
Temperature  
Mean Temperature 58 °F -  
Max Temperature 71 °F 55 °F 79 °F (1952)
Min Temperature 44 °F 38 °F 18 °F (1951)
Degree Days  
Heating Degree Days 8    
Growing Degree Days 8 (Base 50)    
Moisture  
Dew Point 38 °F    
Average Humidity 52    
Maximum Humidity 71    
Minimum Humidity 35    
Precipitation  
Precipitation 0.00 in - - ()
Sea Level Pressure  
Sea Level Pressure 29.90 in    
Wind  
Wind Speed 11 mph (South)    
Max Wind Speed 20 mph    
Max Gust Speed 25 mph    
Visibility 10 miles    
Events      
Averages and records for this station are not official NWS values.
T = Trace of Precipitation, MM = Missing Value Source: NWS Daily Summary

Daily Weather History Graph

Daily Weather History Graph

Search for Another Location

Airport:

Trip Planner

Search our weather history database for the weather conditions in past years. The results will help you decide how hot, cold, wet, or windy it might be!

Date:

Astronomy

Nov. 01, 2011 Rise Set
Actual Time 7:48 AM CDT 6:13 PM CDT
Civil Twilight 7:19 AM CDT 6:41 PM CDT
Nautical Twilight 6:46 AM CDT 7:14 PM CDT
Astronomical Twilight 6:14 AM CDT 7:46 PM CDT
Moon 1:35 PM CDT (11/1) 11:56 PM CDT (11/1)
Length of Visible Light 11h 22m
Length of Day
10h 25m
Waxing Crescent, 40% of the Moon is Illuminated
Nov 1
Waxing Crescent
Nov 2
First Quarter
Nov 10
Full
Nov 18
Last Quarter
Nov 25
New

Hourly Weather History & Observations

Time (CDT) Temp. Windchill Dew Point Humidity Pressure Visibility Wind Dir Wind Speed Gust Speed Precip Events Conditions
12:15 AM 44.6 °F 39.7 °F 26.6 °F 49% 29.96 in 10.0 mi SE 9.2 mph - N/A   Clear
12:35 AM 44.6 °F 39.7 °F 26.6 °F 49% 29.95 in 10.0 mi SE 9.2 mph - N/A   Clear
12:55 AM 44.6 °F 39.7 °F 26.6 °F 49% 29.95 in 10.0 mi SSE 9.2 mph - N/A   Clear
1:15 AM 46.4 °F 41.1 °F 26.6 °F 46% 29.95 in 10.0 mi SSE 11.5 mph - N/A   Clear
1:35 AM 44.6 °F 39.2 °F 26.6 °F 49% 29.95 in 10.0 mi SSE 10.4 mph - N/A   Clear
1:55 AM 44.6 °F 39.7 °F 26.6 °F 49% 29.94 in 10.0 mi SSE 9.2 mph - N/A   Clear
2:15 AM 44.6 °F 39.2 °F 28.4 °F 53% 29.93 in 10.0 mi SSE 10.4 mph - N/A   Clear
2:35 AM 44.6 °F 39.7 °F 28.4 °F 53% 29.93 in 10.0 mi SSE 9.2 mph - N/A   Clear
2:55 AM 44.6 °F 39.7 °F 28.4 °F 53% 29.93 in 10.0 mi SSE 9.2 mph - N/A   Clear
3:15 AM 44.6 °F 39.7 °F 28.4 °F 53% 29.92 in 10.0 mi SSE 9.2 mph - N/A   Clear
3:35 AM 44.6 °F 39.7 °F 28.4 °F 53% 29.92 in 10.0 mi South 9.2 mph - N/A   Clear
3:55 AM 44.6 °F 39.7 °F 30.2 °F 57% 29.92 in 10.0 mi South 9.2 mph - N/A   Clear
4:15 AM 46.4 °F 41.5 °F 30.2 °F 53% 29.92 in 10.0 mi South 10.4 mph - N/A   Clear
4:35 AM 46.4 °F 41.1 °F 30.2 °F 53% 29.91 in 10.0 mi South 11.5 mph - N/A   Clear
4:55 AM 44.6 °F 38.4 °F 32.0 °F 61% 29.91 in 10.0 mi South 12.7 mph - N/A   Clear
5:15 AM 44.6 °F 38.4 °F 32.0 °F 61% 29.91 in 10.0 mi South 12.7 mph - N/A   Clear
5:35 AM 46.4 °F 41.1 °F 33.8 °F 62% 29.91 in 10.0 mi South 11.5 mph - N/A   Clear
5:55 AM 44.6 °F 38.8 °F 33.8 °F 66% 29.92 in 10.0 mi South 11.5 mph - N/A   Clear
6:15 AM 44.6 °F 39.2 °F 35.6 °F 71% 29.92 in 10.0 mi South 10.4 mph - N/A   Clear
6:35 AM 46.4 °F 41.9 °F 35.6 °F 66% 29.91 in 10.0 mi South 9.2 mph - N/A   Clear
6:55 AM 44.6 °F 39.7 °F 35.6 °F 71% 29.91 in 10.0 mi South 9.2 mph - N/A   Clear
7:15 AM 44.6 °F 39.7 °F 35.6 °F 71% 29.91 in 10.0 mi South 9.2 mph - N/A   Clear
7:35 AM 46.4 °F 41.5 °F 37.4 °F 71% 29.92 in 10.0 mi SSE 10.4 mph - N/A   Clear
8:15 AM 46.4 °F 41.5 °F 37.4 °F 71% 29.92 in 10.0 mi South 10.4 mph - N/A   Clear
8:35 AM 48.2 °F - 39.2 °F 71% 29.92 in 10.0 mi South 11.5 mph - N/A   Clear
8:55 AM 50.0 °F - 39.2 °F 66% 29.92 in 10.0 mi South 12.7 mph - N/A   Clear
9:15 AM 51.8 °F - 41.0 °F 67% 29.92 in 10.0 mi South 15.0 mph 20.7 mph N/A   Clear
9:35 AM 53.6 °F - 41.0 °F 62% 29.91 in 10.0 mi South 17.3 mph 21.9 mph N/A   Clear
9:55 AM 55.4 °F - 42.8 °F 63% 29.91 in 10.0 mi South 17.3 mph 25.3 mph N/A   Clear
10:15 AM 57.2 °F - 42.8 °F 59% 29.91 in 10.0 mi SSW 18.4 mph 25.3 mph N/A   Clear
10:35 AM 59.0 °F - 42.8 °F 55% 29.91 in 10.0 mi South 15.0 mph - N/A   Clear
10:55 AM 60.8 °F - 44.6 °F 55% 29.91 in 10.0 mi SSW 19.6 mph - N/A   Clear
11:15 AM 62.6 °F - 44.6 °F 52% 29.91 in 10.0 mi SSW 19.6 mph - N/A   Clear
11:35 AM 64.4 °F - 44.6 °F 49% 29.90 in 10.0 mi SSW 16.1 mph 24.2 mph N/A   Clear
11:55 AM 64.4 °F - 44.6 °F 49% 29.90 in 10.0 mi SSW 18.4 mph - N/A   Clear
12:15 PM 66.2 °F - 44.6 °F 46% 29.89 in 10.0 mi SSW 17.3 mph 24.2 mph N/A   Clear
12:35 PM 68.0 °F - 44.6 °F 43% 29.88 in 10.0 mi SSW 19.6 mph - N/A   Clear
12:55 PM 68.0 °F - 44.6 °F 43% 29.88 in 10.0 mi SSW 18.4 mph 25.3 mph N/A   Clear
1:15 PM 69.8 °F - 44.6 °F 40% 29.87 in 10.0 mi South 18.4 mph 21.9 mph N/A   Clear
1:35 PM 69.8 °F - 44.6 °F 40% 29.86 in 10.0 mi South 16.1 mph 20.7 mph N/A   Clear
1:55 PM 69.8 °F - 42.8 °F 38% 29.86 in 10.0 mi SSW 15.0 mph 21.9 mph N/A   Clear
2:15 PM 69.8 °F - 42.8 °F 38% 29.85 in 10.0 mi South 13.8 mph 21.9 mph N/A   Clear
2:35 PM 69.8 °F - 42.8 °F 38% 29.85 in 10.0 mi SSW 17.3 mph - N/A   Clear
2:55 PM 69.8 °F - 42.8 °F 38% 29.85 in 10.0 mi South 18.4 mph 25.3 mph N/A   Clear
3:15 PM 71.6 °F - 42.8 °F 35% 29.85 in 10.0 mi SSW 18.4 mph 21.9 mph N/A   Clear
3:35 PM 71.6 °F - 42.8 °F 35% 29.85 in 10.0 mi SSW 18.4 mph 24.2 mph N/A   Clear
3:55 PM 71.6 °F - 42.8 °F 35% 29.85 in 10.0 mi SW 15.0 mph - N/A   Clear
4:15 PM 71.6 °F - 42.8 °F 35% 29.85 in 10.0 mi SSW 12.7 mph 17.3 mph N/A   Clear
4:35 PM 71.6 °F - 42.8 °F 35% 29.86 in 10.0 mi SW 16.1 mph - N/A   Clear
4:55 PM 69.8 °F - 42.8 °F 38% 29.86 in 10.0 mi SW 13.8 mph - N/A   Clear
5:15 PM 69.8 °F - 42.8 °F 38% 29.86 in 10.0 mi SW 10.4 mph - N/A   Clear
5:35 PM 69.8 °F - 42.8 °F 38% 29.86 in 10.0 mi WSW 6.9 mph - N/A   Clear
5:55 PM 66.2 °F - 44.6 °F 46% 29.87 in 10.0 mi SW 5.8 mph - N/A   Clear
6:15 PM 64.4 °F - 44.6 °F 49% 29.87 in 10.0 mi WSW 4.6 mph - N/A   Clear
6:35 PM 62.6 °F - 44.6 °F 52% 29.88 in 7.0 mi WSW 4.6 mph - N/A   Mostly Cloudy
6:55 PM 64.4 °F - 44.6 °F 49% 29.88 in 10.0 mi Calm Calm - N/A   Mostly Cloudy
7:15 PM 62.6 °F - 44.6 °F 52% 29.88 in 10.0 mi Calm Calm - N/A   Scattered Clouds
7:35 PM 60.8 °F - 44.6 °F 55% 29.88 in 5.0 mi Calm Calm - N/A   Haze
7:55 PM 60.8 °F - 44.6 °F 55% 29.89 in 10.0 mi Calm Calm - N/A   Scattered Clouds
8:15 PM 57.2 °F - 44.6 °F 63% 29.89 in 7.0 mi Calm Calm - N/A   Mostly Cloudy
8:35 PM 59.0 °F - 44.6 °F 59% 29.89 in 10.0 mi Calm Calm - N/A   Mostly Cloudy
8:55 PM 57.2 °F - 44.6 °F 63% 29.89 in 10.0 mi NNE 6.9 mph - N/A   Mostly Cloudy
9:15 PM 59.0 °F - 44.6 °F 59% 29.89 in 7.0 mi NE 3.5 mph - N/A   Overcast
9:55 PM 59.0 °F - 44.6 °F 59% 29.92 in 10.0 mi North 9.2 mph - N/A   Overcast
10:15 PM 57.2 °F - 42.8 °F 59% 29.93 in 10.0 mi NNE 9.2 mph - N/A   Overcast
10:35 PM 55.4 °F - 39.2 °F 54% 29.93 in 10.0 mi NE 10.4 mph - N/A   Mostly Cloudy
10:55 PM 55.4 °F - 37.4 °F 51% 29.93 in 10.0 mi NNE 13.8 mph - N/A   Mostly Cloudy
11:15 PM 55.4 °F - 37.4 °F 51% 29.93 in 10.0 mi NNE 10.4 mph - N/A   Mostly Cloudy
11:35 PM 53.6 °F - 35.6 °F 51% 29.93 in 10.0 mi NNE 13.8 mph - N/A   Overcast